Location: LDNL
(36.4545°S, 141.6685°E)
Time: 10:41:35
(UTC+10:00)

Explorer 7 - Pass Details

Date: 20 August 2022
Orbit: 482 x 668 km, 50.3° (Epoch: 26 September)

Event Time Altitude Azimuth Distance (km) Brightness Sun altitude
Rises 23:02:03 0° 239° (WSW) 2,931 - -57.8°
Reaches altitude 10° 23:04:36 10° 248° (WSW) 1,987 - -58.2°
Maximum altitude 23:08:41 33° 312° (NW) 1,001 - -58.8°
Drops below altitude 10° 23:12:32 10° 16° (NNE) 1,859 - -59.3°
Sets 23:14:51 0° 26° (NNE) 2,713 - -59.7°
